QPF
0.00 0.00 0.00 0.02 0.05 0.06 0.04 0.02 0.01 0.01 0.02 0.01 0.00 0.00 0.00 0.00 0.00 0.00 0.00 0.00 0.00 0.00 0.00 0.00 0.00 0.00 0.00 0.00 0.00 0.00 0.01 0.01 0.01 0.02 0.03 0.03 0.03 0.04 0.04 0.05 0.05 0.04 0.03 0.02
0.00 0.00 0.02 0.03 0.06 0.07 0.03 0.01 0.00 0.00 0.01 0.00 0.00 0.00 0.00 0.00 0.00 0.00 0.00 0.00 0.00 0.00 0.00 0.00 0.00 0.00 0.00 0.00 0.00 0.00 0.01 0.01 0.02 0.04 0.04 0.03 0.05 0.05 0.05 0.05 0.04 0.04 0.04 0.03
0.01 0.01 0.01 0.01 0.01 0.01 0.01 0.00 0.00 0.00 0.00 0.00 0.00 0.00 0.00 0.00 0.00 0.00 0.00 0.00 0.00 0.00 0.00 0.00 0.00 0.00 0.00 0.00 0.00 0.01 0.02 0.02 0.02 0.03 0.04 0.04 0.05 0.04 0.04 0.05 0.04 0.04 0.04 0.05
0.02 0.02 0.01 0.01 0.00 0.00 0.00 0.00 0.00 0.00 0.00 0.00 0.00 0.00 0.00 0.00 0.00 0.00 0.00 0.00 0.00 0.00 0.00 0.00 0.00 0.00 0.00 0.00 0.00 0.01 0.02 0.02 0.01 0.02 0.04 0.04 0.04 0.04 0.04 0.04 0.04 0.05 0.05 0.04
0.02 0.01 0.01 0.00 0.00 0.00 0.00 0.00 0.00 0.00 0.00 0.00 0.00 0.00 0.00 0.00 0.00 0.00 0.00 0.00 0.00 0.00 0.00 0.00 0.00 0.00 0.00 0.00 0.00 0.01 0.02 0.01 0.01 0.01 0.01 0.02 0.03 0.04 0.04 0.05 0.05 0.05 0.05 0.03
0.02 0.01 0.00 0.00 0.00 0.00 0.00 0.00 0.00 0.00 0.00 0.00 0.00 0.00 0.00 0.00 0.00 0.00 0.00 0.00 0.00 0.00 0.00 0.00 0.00 0.00 0.00 0.00 0.00 0.01 0.01 0.01 0.01 0.01 0.01 0.02 0.02 0.03 0.04 0.05 0.06 0.06 0.06 0.05
0.01 0.01 0.00 0.00 0.00 0.00 0.00 0.00 0.00 0.00 0.00 0.00 0.00 0.00 0.00 0.00 0.00 0.00 0.00 0.00 0.00 0.00 0.00 0.00 0.00 0.00 0.00 0.00 0.00 0.00 0.01 0.01 0.01 0.01 0.01 0.01 0.02 0.03 0.05 0.05 0.05 0.06 0.05 0.06
0.00 0.00 0.00 0.00 0.00 0.00 0.00 0.00 0.00 0.00 0.00 0.00 0.00 0.00 0.00 0.00 0.00 0.00 0.00 0.00 0.00 0.00 0.00 0.00 0.00 0.00 0.00 0.00 0.00 0.00 0.01 0.00 0.01 0.01 0.00 0.01 0.01 0.02 0.03 0.05 0.07 0.08 0.07 0.06
0.00 0.00 0.00 0.00 0.00 0.00 0.00 0.00 0.00 0.00 0.00 0.00 0.00 0.00 0.00 0.00 0.00 0.00 0.00 0.00 0.00 0.00 0.00 0.00 0.00 0.00 0.00 0.00 0.00 0.00 0.00 0.00 0.01 0.01 0.01 0.01 0.01 0.01 0.02 0.03 0.04 0.04 0.04 0.06
0.01 0.00 0.00 0.00 0.00 0.00 0.00 0.00 0.00 0.00 0.00 0.00 0.00 0.00 0.00 0.00 0.00 0.00 0.00 0.00 0.00 0.00 0.00 0.00 0.00 0.00 0.00 0.00 0.00 0.00 0.00 0.00 0.00 0.00 0.01 0.01 0.01 0.00 0.01 0.01 0.01 0.02 0.03 0.03
0.00 0.00 0.00 0.00 0.00 0.00 0.00 0.00 0.00 0.00 0.00 0.00 0.00 0.00 0.00 0.00 0.00 0.00 0.00 0.00 0.00 0.00 0.00 0.00 0.00 0.00 0.00 0.00 0.00 0.00 0.00 0.00 0.00 0.00 0.00 0.00 0.01 0.01 0.01 0.01 0.01 0.02 0.02 0.02
0.00 0.00 0.00 0.00 0.00 0.00 0.00 0.00 0.00 0.00 0.00 0.00 0.00 0.00 0.00 0.00 0.00 0.00 0.00 0.00 0.00 0.00 0.00 0.00 0.00 0.00 0.00 0.00 0.00 0.00 0.00 0.00 0.00 0.00 0.00 0.01 0.01 0.01 0.02 0.01 0.01 0.02 0.02 0.02
0.00 0.00 0.00 0.00 0.00 0.00 0.00 0.00 0.00 0.00 0.00 0.00 0.00 0.00 0.00 0.00 0.00 0.00 0.00 0.00 0.00 0.00 0.00 0.00 0.00 0.00 0.00 0.00 0.00 0.00 0.00 0.00 0.00 0.00 0.00 0.00 0.00 0.01 0.01 0.01 0.00 0.01 0.02 0.02
0.00 0.00 0.00 0.00 0.00 0.00 0.00 0.00 0.00 0.00 0.00 0.00 0.00 0.00 0.00 0.00 0.00 0.00 0.00 0.00 0.00 0.00 0.00 0.00 0.00 0.00 0.00 0.00 0.00 0.00 0.00 0.00 0.00 0.00 0.00 0.00 0.00 0.00 0.00 0.00 0.01 0.01 0.02 0.03
0.00 0.00 0.00 0.00 0.00 0.00 0.00 0.00 0.00 0.00 0.00 0.00 0.00 0.00 0.00 0.00 0.00 0.00 0.00 0.00 0.00 0.00 0.00 0.00 0.00 0.00 0.00 0.00 0.00 0.00 0.00 0.00 0.00 0.00 0.00 0.00 0.00 0.00 0.00 0.00 0.00 0.00 0.01 0.01
0.00 0.00 0.00 0.00 0.00 0.00 0.00 0.00 0.00 0.00 0.00 0.00 0.00 0.00 0.00 0.00 0.00 0.00 0.00 0.00 0.00 0.00 0.00 0.00 0.00 0.00 0.00 0.00 0.00 0.00 0.00 0.00 0.00 0.00 0.00 0.00 0.00 0.00 0.00 0.00 0.00 0.00 0.00 0.01
0.00 0.00 0.00 0.00 0.00 0.00 0.00 0.00 0.00 0.00 0.00 0.00 0.00 0.00 0.00 0.00 0.00 0.00 0.00 0.00 0.00 0.00 0.00 0.00 0.00 0.00 0.00 0.00 0.00 0.00 0.00 0.00 0.00 0.00 0.00 0.00 0.00 0.00 0.00 0.00 0.00 0.00 0.00 0.00
0.00 0.00 0.00 0.00 0.00 0.00 0.00 0.00 0.00 0.00 0.00 0.00 0.00 0.00 0.00 0.00 0.00 0.00 0.00 0.00 0.00 0.00 0.00 0.00 0.00 0.00 0.00 0.00 0.00 0.00 0.00 0.00 0.00 0.00 0.00 0.00 0.00 0.00 0.00 0.00 0.00 0.00 0.00 0.00
0.00 0.00 0.00 0.00 0.00 0.00 0.00 0.00 0.00 0.00 0.00 0.00 0.00 0.00 0.00 0.00 0.00 0.00 0.00 0.00 0.00 0.00 0.00 0.00 0.00 0.00 0.00 0.00 0.00 0.00 0.00 0.00 0.00 0.00 0.00 0.00 0.00 0.00 0.00 0.00 0.00 0.00 0.00 0.00
0.00 0.00 0.00 0.00 0.00 0.00 0.00 0.00 0.00 0.00 0.00 0.00 0.00 0.00 0.00 0.00 0.00 0.00 0.00 0.00 0.00 0.00 0.00 0.00 0.00 0.00 0.00 0.00 0.00 0.00 0.00 0.00 0.00 0.00 0.00 0.00 0.00 0.00 0.00 0.00 0.00 0.00 0.00 0.00
0.00 0.00 0.00 0.00 0.00 0.00 0.00 0.00 0.00 0.00 0.00 0.00 0.00 0.00 0.00 0.00 0.00 0.00 0.00 0.00 0.00 0.00 0.00 0.00 0.00 0.00 0.00 0.00 0.00 0.00 0.00 0.00 0.00 0.00 0.00 0.00 0.00 0.00 0.00 0.00 0.00 0.00 0.00 0.00
0.00 0.00 0.00 0.00 0.00 0.00 0.00 0.00 0.00 0.00 0.00 0.00 0.00 0.00 0.00 0.00 0.00 0.00 0.00 0.00 0.00 0.00 0.00 0.00 0.00 0.00 0.00 0.00 0.00 0.00 0.00 0.00 0.00 0.00 0.00 0.00 0.00 0.00 0.00 0.00 0.00 0.00 0.00 0.00
0.00 0.00 0.00 0.00 0.00 0.00 0.00 0.00 0.00 0.00 0.00 0.00 0.00 0.00 0.00 0.00 0.00 0.00 0.00 0.00 0.00 0.00 0.00 0.00 0.00 0.00 0.00 0.00 0.00 0.00 0.00 0.00 0.00 0.00 0.00 0.00 0.00 0.00 0.00 0.00 0.00 0.00 0.00 0.00
0.00 0.00 0.00 0.00 0.00 0.00 0.00 0.00 0.00 0.00 0.00 0.00 0.00 0.00 0.00 0.00 0.00 0.00 0.00 0.00 0.00 0.00 0.00 0.00 0.00 0.00 0.00 0.00 0.00 0.00 0.00 0.00 0.00 0.00 0.00 0.00 0.00 0.00 0.00 0.00 0.00 0.00 0.00 0.00
0.00 0.00 0.00 0.00 0.00 0.00 0.00 0.00 0.00 0.00 0.00 0.00 0.00 0.00 0.00 0.00 0.00 0.00 0.00 0.00 0.00 0.00 0.00 0.00 0.00 0.00 0.00 0.00 0.00 0.00 0.00 0.00 0.00 0.00 0.00 0.00 0.00 0.00 0.00 0.00 0.00 0.00 0.00 0.00
0.00 0.00 0.00 0.00 0.00 0.00 0.00 0.00 0.00 0.00 0.00 0.00 0.00 0.00 0.00 0.00 0.00 0.00 0.00 0.00 0.00 0.00 0.00 0.00 0.00 0.00 0.00 0.00 0.00 0.00 0.00 0.00 0.00 0.00 0.00 0.00 0.00 0.00 0.00 0.00 0.00 0.00 0.00 0.00
MSLP
1009.74 1010.82 1011.79 1012.62 1013.29 1013.80 1014.18 1014.44 1014.63 1014.74 1014.79 1014.77 1014.69 1014.54 1014.33 1014.10 1013.87 1013.67 1013.53 1013.46 1013.46 1013.52 1013.62 1013.75 1013.89 1014.01 1014.12 1014.20 1014.27 1014.31 1014.33 1014.33 1014.29 1014.20 1014.07 1013.89 1013.66 1013.39 1013.10 1012.79 1012.49 1012.20 1011.93 1011.69
1010.36 1011.31 1012.15 1012.85 1013.40 1013.84 1014.18 1014.45 1014.65 1014.78 1014.83 1014.81 1014.68 1014.48 1014.22 1013.92 1013.65 1013.43 1013.30 1013.27 1013.33 1013.47 1013.64 1013.82 1013.98 1014.11 1014.19 1014.23 1014.25 1014.26 1014.27 1014.28 1014.27 1014.25 1014.18 1014.06 1013.87 1013.63 1013.34 1013.03 1012.70 1012.39 1012.10 1011.85
1010.86 1011.66 1012.34 1012.90 1013.35 1013.72 1014.04 1014.32 1014.55 1014.72 1014.80 1014.78 1014.65 1014.41 1014.11 1013.78 1013.48 1013.26 1013.16 1013.18 1013.30 1013.51 1013.74 1013.97 1014.14 1014.25 1014.29 1014.28 1014.25 1014.22 1014.21 1014.22 1014.25 1014.27 1014.27 1014.20 1014.07 1013.85 1013.58 1013.25 1012.91 1012.58 1012.28 1012.03
1011.23 1011.86 1012.39 1012.82 1013.18 1013.52 1013.84 1014.16 1014.45 1014.68 1014.81 1014.81 1014.68 1014.42 1014.08 1013.72 1013.40 1013.18 1013.09 1013.15 1013.33 1013.58 1013.87 1014.12 1014.30 1014.39 1014.39 1014.33 1014.25 1014.18 1014.15 1014.16 1014.22 1014.29 1014.33 1014.32 1014.23 1014.04 1013.77 1013.44 1013.09 1012.75 1012.44 1012.19
1011.47 1011.95 1012.34 1012.67 1012.99 1013.32 1013.69 1014.08 1014.45 1014.76 1014.95 1014.98 1014.85 1014.57 1014.19 1013.78 1013.42 1013.17 1013.07 1013.14 1013.34 1013.63 1013.95 1014.22 1014.40 1014.47 1014.44 1014.35 1014.23 1014.12 1014.08 1014.10 1014.18 1014.28 1014.37 1014.40 1014.34 1014.17 1013.91 1013.58 1013.21 1012.86 1012.54 1012.29
1011.63 1011.98 1012.27 1012.54 1012.85 1013.22 1013.65 1014.14 1014.61 1015.00 1015.25 1015.31 1015.17 1014.86 1014.42 1013.94 1013.51 1013.20 1013.07 1013.11 1013.31 1013.61 1013.93 1014.21 1014.39 1014.46 1014.42 1014.31 1014.17 1014.05 1013.99 1014.02 1014.11 1014.24 1014.35 1014.42 1014.38 1014.23 1013.98 1013.64 1013.27 1012.90 1012.58 1012.33
1011.76 1012.01 1012.23 1012.48 1012.81 1013.24 1013.76 1014.34 1014.91 1015.38 1015.68 1015.76 1015.61 1015.24 1014.72 1014.16 1013.63 1013.24 1013.03 1013.02 1013.19 1013.47 1013.79 1014.08 1014.27 1014.35 1014.32 1014.21 1014.07 1013.95 1013.89 1013.92 1014.02 1014.16 1014.29 1014.37 1014.35 1014.22 1013.97 1013.64 1013.26 1012.89 1012.57 1012.32
1011.88 1012.06 1012.25 1012.50 1012.87 1013.37 1013.98 1014.65 1015.30 1015.83 1016.16 1016.24 1016.05 1015.62 1015.02 1014.35 1013.73 1013.23 1012.94 1012.86 1012.97 1013.22 1013.53 1013.82 1014.04 1014.14 1014.14 1014.05 1013.93 1013.82 1013.78 1013.80 1013.90 1014.04 1014.18 1014.26 1014.26 1014.13 1013.90 1013.58 1013.21 1012.85 1012.53 1012.27
1012.00 1012.14 1012.33 1012.61 1013.02 1013.57 1014.25 1014.98 1015.66 1016.22 1016.55 1016.61 1016.38 1015.88 1015.21 1014.45 1013.73 1013.15 1012.77 1012.61 1012.67 1012.88 1013.18 1013.48 1013.72 1013.86 1013.90 1013.86 1013.77 1013.68 1013.65 1013.67 1013.77 1013.90 1014.03 1014.11 1014.11 1014.00 1013.79 1013.49 1013.15 1012.80 1012.49 1012.24
1012.09 1012.23 1012.43 1012.74 1013.18 1013.77 1014.47 1015.21 1015.89 1016.43 1016.74 1016.76 1016.48 1015.94 1015.22 1014.40 1013.62 1012.98 1012.53 1012.32 1012.33 1012.51 1012.80 1013.11 1013.37 1013.55 1013.63 1013.63 1013.58 1013.53 1013.50 1013.53 1013.61 1013.73 1013.85 1013.93 1013.94 1013.86 1013.68 1013.42 1013.11 1012.79 1012.50 1012.25
1012.13 1012.30 1012.53 1012.86 1013.31 1013.89 1014.56 1015.26 1015.90 1016.38 1016.64 1016.62 1016.31 1015.74 1015.00 1014.18 1013.39 1012.73 1012.26 1012.02 1012.00 1012.16 1012.43 1012.74 1013.02 1013.23 1013.35 1013.39 1013.38 1013.35 1013.34 1013.36 1013.44 1013.54 1013.66 1013.74 1013.77 1013.71 1013.58 1013.37 1013.11 1012.83 1012.56 1012.32
1012.10 1012.32 1012.59 1012.93 1013.37 1013.90 1014.50 1015.11 1015.66 1016.05 1016.24 1016.17 1015.85 1015.30 1014.60 1013.82 1013.08 1012.45 1012.00 1011.76 1011.73 1011.86 1012.11 1012.41 1012.68 1012.90 1013.05 1013.12 1013.14 1013.13 1013.14 1013.17 1013.24 1013.34 1013.45 1013.55 1013.60 1013.59 1013.50 1013.35 1013.14 1012.91 1012.67 1012.44
1012.02 1012.30 1012.60 1012.94 1013.35 1013.81 1014.30 1014.79 1015.20 1015.49 1015.59 1015.49 1015.18 1014.68 1014.05 1013.37 1012.72 1012.17 1011.78 1011.56 1011.53 1011.64 1011.86 1012.12 1012.37 1012.58 1012.72 1012.81 1012.85 1012.86 1012.88 1012.93 1013.01 1013.12 1013.24 1013.36 1013.44 1013.47 1013.44 1013.34 1013.19 1013.01 1012.79 1012.57
1011.91 1012.24 1012.57 1012.91 1013.26 1013.63 1013.99 1014.33 1014.60 1014.77 1014.80 1014.66 1014.37 1013.95 1013.43 1012.88 1012.36 1011.92 1011.60 1011.43 1011.40 1011.48 1011.65 1011.85 1012.06 1012.23 1012.35 1012.44 1012.49 1012.53 1012.57 1012.65 1012.75 1012.88 1013.03 1013.17 1013.29 1013.36 1013.38 1013.33 1013.23 1013.07 1012.88 1012.66
1011.80 1012.19 1012.54 1012.86 1013.14 1013.41 1013.63 1013.82 1013.94 1013.99 1013.94 1013.78 1013.53 1013.19 1012.80 1012.40 1012.02 1011.70 1011.47 1011.34 1011.31 1011.36 1011.46 1011.60 1011.73 1011.85 1011.94 1012.01 1012.07 1012.13 1012.21 1012.32 1012.46 1012.62 1012.80 1012.97 1013.13 1013.24 1013.29 1013.28 1013.21 1013.08 1012.90 1012.68
1011.74 1012.15 1012.51 1012.79 1013.01 1013.16 1013.26 1013.30 1013.28 1013.22 1013.10 1012.92 1012.71 1012.46 1012.19 1011.93 1011.70 1011.50 1011.36 1011.27 1011.23 1011.24 1011.27 1011.32 1011.38 1011.43 1011.48 1011.53 1011.60 1011.69 1011.81 1011.96 1012.14 1012.35 1012.56 1012.77 1012.95 1013.08 1013.16 1013.18 1013.12 1013.00 1012.82 1012.60
1011.73 1012.14 1012.47 1012.70 1012.85 1012.90 1012.87 1012.78 1012.65 1012.48 1012.30 1012.12 1011.94 1011.77 1011.62 1011.49 1011.38 1011.29 1011.22 1011.17 1011.12 1011.09 1011.05 1011.03 1011.01 1011.00 1011.01 1011.05 1011.13 1011.24 1011.40 1011.60 1011.83 1012.08 1012.32 1012.55 1012.75 1012.90 1012.98 1013.00 1012.95 1012.83 1012.66 1012.43
1011.75 1012.11 1012.38 1012.55 1012.62 1012.58 1012.45 1012.26 1012.03 1011.79 1011.57 1011.38 1011.23 1011.13 1011.07 1011.05 1011.05 1011.05 1011.04 1011.02 1010.97 1010.90 1010.82 1010.73 1010.65 1010.59 1010.57 1010.61 1010.69 1010.84 1011.03 1011.27 1011.54 1011.81 1012.08 1012.32 1012.52 1012.67 1012.75 1012.76 1012.71 1012.59 1012.41 1012.19
1011.73 1012.01 1012.20 1012.30 1012.28 1012.16 1011.95 1011.68 1011.39 1011.10 1010.86 1010.68 1010.56 1010.52 1010.54 1010.61 1010.69 1010.76 1010.81 1010.82 1010.78 1010.70 1010.59 1010.46 1010.34 1010.26 1010.23 1010.26 1010.35 1010.51 1010.74 1011.00 1011.28 1011.57 1011.84 1012.07 1012.26 1012.39 1012.45 1012.45 1012.39 1012.27 1012.11 1011.90
1011.61 1011.77 1011.87 1011.87 1011.78 1011.60 1011.34 1011.03 1010.71 1010.41 1010.17 1010.01 1009.93 1009.95 1010.03 1010.17 1010.32 1010.46 1010.57 1010.62 1010.60 1010.53 1010.42 1010.28 1010.15 1010.06 1010.02 1010.04 1010.14 1010.31 1010.53 1010.79 1011.07 1011.34 1011.59 1011.80 1011.95 1012.05 1012.10 1012.08 1012.01 1011.90 1011.75 1011.58
1011.32 1011.37 1011.35 1011.27 1011.11 1010.89 1010.61 1010.29 1009.98 1009.71 1009.50 1009.38 1009.36 1009.43 1009.57 1009.77 1009.99 1010.19 1010.35 1010.45 1010.48 1010.44 1010.35 1010.23 1010.11 1010.02 1009.98 1009.99 1010.08 1010.23 1010.43 1010.66 1010.90 1011.13 1011.33 1011.49 1011.60 1011.66 1011.66 1011.63 1011.56 1011.46 1011.33 1011.19
1010.85 1010.77 1010.65 1010.49 1010.29 1010.05 1009.78 1009.50 1009.24 1009.03 1008.89 1008.83 1008.87 1009.00 1009.21 1009.47 1009.75 1010.01 1010.23 1010.38 1010.47 1010.48 1010.43 1010.34 1010.24 1010.16 1010.11 1010.11 1010.17 1010.28 1010.42 1010.59 1010.77 1010.92 1011.05 1011.14 1011.19 1011.20 1011.17 1011.11 1011.02 1010.93 1010.83 1010.73
1010.18 1009.99 1009.79 1009.58 1009.36 1009.14 1008.92 1008.71 1008.54 1008.42 1008.37 1008.40 1008.52 1008.72 1008.99 1009.31 1009.64 1009.96 1010.24 1010.45 1010.59 1010.66 1010.66 1010.61 1010.54 1010.46 1010.41 1010.38 1010.39 1010.44 1010.51 1010.59 1010.67 1010.74 1010.78 1010.78 1010.76 1010.70 1010.62 1010.52 1010.42 1010.32 1010.23 1010.16
1009.35 1009.08 1008.82 1008.59 1008.39 1008.22 1008.08 1007.98 1007.93 1007.93 1008.00 1008.13 1008.34 1008.62 1008.95 1009.32 1009.70 1010.06 1010.39 1010.65 1010.85 1010.97 1011.02 1011.02 1010.97 1010.90 1010.83 1010.77 1010.72 1010.69 1010.67 1010.66 1010.63 1010.59 1010.53 1010.44 1010.33 1010.19 1010.05 1009.90 1009.76 1009.64 1009.54 1009.48
1008.39 1008.07 1007.80 1007.58 1007.44 1007.35 1007.33 1007.36 1007.45 1007.59 1007.78 1008.03 1008.33 1008.67 1009.06 1009.47 1009.89 1010.29 1010.66 1010.97 1011.21 1011.38 1011.48 1011.51 1011.49 1011.42 1011.34 1011.24 1011.13 1011.02 1010.91 1010.80 1010.67 1010.52 1010.36 1010.17 1009.97 1009.75 1009.53 1009.32 1009.12 1008.96 1008.82 1008.73
1007.33 1007.01 1006.76 1006.60 1006.54 1006.57 1006.68 1006.85 1007.09 1007.37 1007.70 1008.05 1008.44 1008.85 1009.29 1009.73 1010.17 1010.60 1010.99 1011.33 1011.61 1011.82 1011.96 1012.03 1012.03 1011.98 1011.88 1011.75 1011.60 1011.42 1011.23 1011.03 1010.81 1010.57 1010.31 1010.04 1009.75 1009.45 1009.15 1008.86 1008.60 1008.36 1008.17 1008.02
Thickness
5786 5774 5765 5766 5768 5762 5759 5755 5755 5762 5766 5757 5751 5752 5753 5752 5745 5737 5734 5731 5728 5724 5723 5718 5713 5708 5703 5698 5693 5689 5685 5683 5681 5678 5677 5677 5678 5680 5683 5686 5687 5689 5691 5694
5770 5765 5776 5778 5769 5760 5759 5755 5757 5764 5765 5756 5750 5752 5759 5754 5746 5740 5734 5730 5728 5724 5720 5715 5711 5706 5701 5695 5690 5687 5683 5681 5678 5676 5675 5675 5676 5677 5680 5681 5682 5684 5685 5687
5762 5773 5785 5778 5767 5762 5762 5756 5753 5751 5759 5760 5748 5744 5751 5752 5749 5743 5738 5733 5729 5723 5717 5712 5708 5703 5699 5694 5690 5686 5682 5680 5677 5676 5674 5673 5674 5674 5674 5675 5677 5679 5680 5682
5765 5774 5777 5771 5768 5764 5753 5761 5757 5751 5742 5742 5747 5725 5740 5745 5740 5738 5735 5732 5727 5723 5718 5712 5707 5702 5698 5694 5691 5687 5683 5680 5677 5675 5672 5669 5668 5667 5669 5671 5673 5675 5677 5678
5759 5769 5769 5765 5766 5764 5757 5762 5757 5751 5743 5738 5747 5734 5736 5745 5734 5735 5735 5732 5729 5725 5719 5713 5709 5704 5700 5696 5691 5687 5684 5680 5677 5675 5672 5670 5668 5667 5668 5669 5670 5671 5673 5674
5764 5778 5776 5769 5768 5767 5764 5758 5755 5751 5742 5726 5744 5734 5729 5737 5735 5735 5735 5734 5730 5725 5721 5716 5712 5706 5701 5697 5693 5689 5685 5681 5678 5676 5674 5671 5668 5666 5666 5666 5666 5667 5668 5670
5751 5762 5770 5772 5758 5758 5757 5742 5728 5724 5721 5731 5749 5737 5731 5740 5744 5740 5735 5733 5730 5726 5721 5716 5711 5706 5701 5698 5694 5691 5686 5682 5680 5677 5675 5672 5670 5667 5665 5664 5664 5664 5664 5665
5743 5740 5758 5764 5759 5751 5753 5745 5723 5713 5726 5735 5742 5735 5735 5749 5748 5744 5740 5735 5731 5728 5722 5717 5713 5708 5704 5701 5697 5693 5688 5684 5682 5679 5676 5673 5670 5667 5665 5663 5662 5661 5661 5662
5748 5741 5760 5764 5765 5758 5748 5748 5751 5732 5737 5732 5744 5742 5739 5749 5746 5743 5740 5736 5732 5729 5725 5720 5716 5712 5708 5704 5700 5696 5691 5687 5684 5680 5677 5674 5670 5667 5664 5663 5661 5659 5659 5660
5758 5736 5748 5754 5758 5755 5754 5750 5744 5731 5721 5720 5738 5738 5732 5736 5740 5742 5740 5736 5734 5732 5728 5724 5719 5714 5711 5707 5704 5700 5695 5690 5686 5682 5678 5675 5671 5667 5665 5663 5660 5658 5657 5657
5764 5746 5741 5745 5743 5746 5746 5744 5742 5737 5735 5716 5716 5721 5747 5744 5744 5742 5742 5741 5737 5734 5730 5726 5721 5718 5714 5711 5707 5702 5698 5693 5688 5683 5679 5675 5672 5669 5666 5663 5660 5657 5656 5655
5762 5754 5743 5747 5760 5761 5753 5748 5743 5725 5730 5733 5720 5722 5754 5752 5751 5748 5745 5744 5742 5737 5733 5729 5724 5720 5716 5712 5708 5704 5700 5695 5690 5685 5681 5677 5674 5670 5667 5663 5660 5657 5654 5653
5760 5746 5736 5731 5737 5746 5745 5747 5745 5740 5732 5729 5721 5725 5755 5757 5754 5752 5748 5746 5743 5739 5735 5731 5726 5721 5717 5714 5710 5706 5702 5697 5693 5688 5683 5679 5675 5671 5667 5664 5660 5657 5655 5652
5757 5747 5740 5728 5735 5745 5742 5744 5744 5737 5726 5730 5735 5738 5749 5753 5751 5751 5749 5747 5744 5741 5736 5732 5726 5723 5720 5717 5713 5709 5704 5700 5696 5690 5685 5680 5676 5673 5669 5665 5661 5658 5655 5652
5754 5743 5752 5755 5756 5753 5750 5747 5744 5738 5738 5733 5740 5742 5749 5754 5753 5753 5752 5749 5745 5742 5738 5735 5729 5726 5723 5719 5716 5712 5707 5703 5698 5692 5686 5682 5678 5674 5670 5667 5663 5660 5657 5654
5753 5746 5751 5749 5754 5752 5747 5750 5749 5745 5744 5743 5743 5745 5761 5763 5760 5756 5754 5751 5745 5743 5741 5738 5735 5730 5726 5723 5719 5714 5709 5705 5700 5694 5689 5684 5680 5675 5671 5668 5665 5661 5658 5656
5752 5746 5742 5741 5753 5748 5739 5756 5754 5751 5755 5751 5742 5751 5762 5758 5757 5756 5755 5752 5748 5746 5743 5740 5737 5733 5729 5727 5722 5716 5711 5707 5702 5696 5691 5687 5682 5677 5673 5670 5666 5662 5660 5657
5755 5749 5745 5742 5742 5723 5754 5781 5775 5763 5761 5764 5762 5763 5763 5761 5761 5761 5760 5755 5751 5749 5745 5742 5739 5736 5733 5730 5725 5719 5714 5708 5703 5697 5693 5689 5684 5679 5675 5671 5667 5664 5662 5658
5762 5751 5742 5740 5736 5746 5759 5772 5771 5760 5758 5771 5766 5765 5766 5766 5762 5758 5761 5759 5754 5751 5747 5744 5742 5739 5735 5731 5727 5721 5716 5710 5704 5698 5694 5691 5686 5681 5676 5672 5669 5667 5664 5660
5755 5753 5741 5739 5728 5732 5760 5777 5782 5766 5750 5774 5772 5766 5764 5761 5745 5746 5758 5757 5754 5751 5747 5744 5741 5738 5734 5731 5726 5719 5714 5710 5704 5700 5696 5693 5689 5683 5678 5675 5672 5669 5666 5664
5735 5736 5731 5728 5730 5749 5767 5777 5772 5740 5751 5775 5774 5768 5764 5757 5752 5754 5757 5754 5751 5748 5745 5742 5738 5734 5731 5729 5724 5716 5713 5709 5706 5702 5698 5693 5690 5685 5682 5678 5674 5672 5669 5666
5741 5736 5735 5733 5726 5739 5769 5767 5759 5761 5774 5775 5771 5769 5764 5760 5757 5756 5753 5750 5747 5744 5741 5738 5733 5730 5728 5726 5720 5714 5710 5709 5706 5701 5696 5692 5690 5687 5685 5680 5676 5674 5670 5667
5756 5757 5755 5753 5749 5764 5774 5771 5772 5776 5772 5771 5768 5765 5761 5756 5753 5751 5748 5746 5744 5741 5738 5734 5730 5726 5725 5723 5718 5711 5709 5708 5704 5699 5695 5692 5690 5688 5686 5681 5678 5675 5672 5669
5765 5773 5762 5758 5760 5765 5768 5770 5769 5770 5768 5767 5765 5762 5758 5753 5750 5747 5744 5741 5739 5737 5734 5731 5727 5722 5720 5720 5716 5712 5709 5706 5702 5698 5695 5693 5691 5689 5687 5684 5680 5676 5672 5669
5761 5763 5756 5753 5760 5760 5762 5765 5765 5764 5763 5761 5759 5757 5753 5749 5746 5743 5739 5736 5733 5731 5729 5726 5721 5717 5715 5714 5712 5709 5706 5703 5699 5696 5695 5693 5691 5689 5686 5684 5681 5678 5676 5673
5762 5758 5749 5748 5762 5759 5760 5765 5764 5758 5755 5755 5751 5747 5746 5744 5740 5737 5733 5729 5727 5724 5722 5718 5714 5711 5709 5707 5704 5702 5700 5697 5693 5690 5690 5688 5687 5686 5684 5682 5680 5681 5677 5675